Galena, AK

5:05 PM AKDT on October 22, 2017 (GMT -0800)
Pitka

Weather History for PAGA - March, 2013

Change the Weather History Date:

Thursday, March 21, 2013

  Actual Average Record
Temperature  
Mean Temperature -2 °F -  
Max Temperature 16 °F 20 °F 39 °F (2002)
Min Temperature -17 °F 0 °F -43 °F (1975)
Degree Days  
Heating Degree Days 66    
Moisture  
Dew Point -8 °F    
Average Humidity 71    
Maximum Humidity 83    
Minimum Humidity 51    
Precipitation  
Precipitation 0.00 in - - ()
Sea Level Pressure  
Sea Level Pressure 30.04 in    
Wind  
Wind Speed 1 mph (NNW)    
Max Wind Speed 6 mph    
Max Gust Speed -    
Visibility 8 miles    
Events Snow    
Averages and records for this station are not official NWS values.
T = Trace of Precipitation, MM = Missing Value Source: NWS Daily Summary

Daily Weather History Graph

Daily Weather History Graph

Search for Another Location

Airport or City:

Trip Planner

Search our weather history database for the weather conditions in past years. The results will help you decide how hot, cold, wet, or windy it might be!

Date:

Astronomy

Mar. 21, 2013 Rise Set
Actual Time 8:22 AM AKDT 8:48 PM AKDT
Civil Twilight 7:33 AM AKDT 9:37 PM AKDT
Nautical Twilight 6:33 AM AKDT 10:38 PM AKDT
Astronomical Twilight 5:23 AM AKDT 11:49 PM AKDT
Moon 1:41 PM AKDT (3/21) 6:43 AM AKDT (3/21)
Length of Visible Light 14h 03m
Length of Day
12h 25m
Waxing Gibbous, 70% of the Moon is Illuminated
Mar 21
Waxing Gibbous
Mar 27
Full
Apr 2
Last Quarter
Apr 10
New
Apr 18
First Quarter

Hourly Weather History & Observations

Time (AKDT) Temp. Windchill Dew Point Humidity Pressure Visibility Wind Dir Wind Speed Gust Speed Precip Events Conditions
12:58 AM 1.9 °F - -2.9 °F 80% 30.03 in 10.0 mi Calm Calm - N/A   Scattered Clouds
1:58 AM -2.9 °F - -8.0 °F 79% 30.04 in 10.0 mi Calm Calm - N/A   Clear
2:58 AM -6.0 °F - -11.0 °F 79% 30.05 in 10.0 mi Calm Calm - N/A   Clear
3:58 AM -9.0 °F - -13.0 °F 83% 30.06 in 10.0 mi Calm Calm - N/A   Clear
4:58 AM -11.9 °F - -17.0 °F 78% 30.06 in 10.0 mi Calm Calm - N/A   Clear
5:58 AM -14.1 °F - -18.0 °F 82% 30.07 in 10.0 mi Calm Calm - N/A   Clear
6:58 AM -17.0 °F - -22.0 °F 78% 30.08 in 10.0 mi Calm Calm - N/A   Scattered Clouds
7:58 AM -16.1 °F - -20.0 °F 82% 30.09 in 8.0 mi Calm Calm - N/A   Overcast
8:44 AM -14.8 °F - -20.2 °F 77% 30.07 in 5.0 mi Calm Calm - N/A   Haze
8:58 AM -15.0 °F - -20.0 °F 78% 30.10 in 6.0 mi Calm Calm - 0.00 in Snow Light Snow
9:44 AM -11.2 °F - -16.6 °F 77% 30.08 in 10.0 mi Calm Calm - 0.00 in   Scattered Clouds
9:58 AM -8.0 °F - -13.0 °F 79% 30.10 in 10.0 mi Calm Calm - 0.00 in   Partly Cloudy
10:58 AM -2.0 °F - -11.0 °F 66% 30.10 in 8.0 mi Calm Calm - N/A   Clear
11:58 AM 1.9 °F - -9.0 °F 60% 30.09 in 9.0 mi Calm Calm - N/A   Clear
12:58 PM 7.0 °F - -2.9 °F 64% 30.10 in 10.0 mi Calm Calm - N/A   Clear
1:58 PM 10.9 °F 4.7 °F -4.0 °F 51% 30.09 in 10.0 mi Variable 3.5 mph - N/A   Mostly Cloudy
2:58 PM 12.0 °F 5.9 °F -0.9 °F 56% 30.08 in 10.0 mi Variable 3.5 mph - N/A   Overcast
3:58 PM 14.0 °F - -0.0 °F 54% 30.07 in 7.0 mi Calm Calm - N/A   Overcast
4:58 PM 14.0 °F 8.2 °F -0.0 °F 54% 30.05 in 10.0 mi Variable 3.5 mph - N/A   Overcast
5:58 PM 12.0 °F 2.7 °F -0.0 °F 59% 30.04 in 10.0 mi Variable 5.8 mph - N/A   Overcast
6:58 PM 10.0 °F 0.4 °F -0.9 °F 61% 30.02 in 10.0 mi NNE 5.8 mph - N/A   Clear
7:58 PM 7.0 °F -1.7 °F -0.9 °F 70% 30.00 in 10.0 mi Variable 4.6 mph - N/A   Scattered Clouds
8:58 PM 6.1 °F - -2.9 °F 67% 30.00 in 10.0 mi Calm Calm - N/A   Overcast
9:58 PM 5.0 °F -4.1 °F -2.0 °F 73% 29.99 in 5.0 mi North 4.6 mph - 0.00 in Snow Light Snow
10:20 PM 5.0 °F -2.1 °F -2.2 °F 72% 29.96 in 2.5 mi NNW 3.5 mph - 0.00 in Snow Light Snow
10:33 PM 5.0 °F -2.1 °F -2.2 °F 72% 29.96 in 2.0 mi Variable 3.5 mph - 0.00 in Snow Light Snow
10:41 PM 3.2 °F -6.2 °F -2.2 °F 78% 29.96 in 2.5 mi Variable 4.6 mph - 0.00 in Snow Light Snow
10:47 PM 3.2 °F -7.8 °F -2.2 °F 78% 29.95 in 3.0 mi NNW 5.8 mph - 0.00 in Snow Light Snow
10:58 PM 3.9 °F -6.9 °F -2.0 °F 76% 29.98 in 4.0 mi NNW 5.8 mph - 0.00 in Snow Light Snow
11:58 PM 1.9 °F -7.6 °F -2.9 °F 80% 29.97 in 6.0 mi NNW 4.6 mph - 0.00 in Snow Light Snow